TimeMST,TemperatureF,Dew PointF,Humidity,Sea Level PressureIn,VisibilityMPH,Wind Direction,Wind SpeedMPH,Gust SpeedMPH,PrecipitationIn,Events,Conditions,WindDirDegrees,DateUTC
12:53 AM,-7.1,-11.0,83,30.58,10.0,WSW,3.5,-,N/A,,Clear,250,2013-01-03 07:53:00
1:53 AM,-9.0,-11.9,87,30.59,10.0,Calm,Calm,-,N/A,,Clear,0,2013-01-03 08:53:00
2:53 AM,-8.0,-13.0,79,30.60,10.0,Calm,Calm,-,N/A,,Clear,0,2013-01-03 09:53:00
3:53 AM,-8.0,-11.9,83,30.60,10.0,SE,3.5,-,N/A,,Clear,130,2013-01-03 10:53:00
4:53 AM,-9.0,-14.1,79,30.60,10.0,Calm,Calm,-,N/A,,Clear,0,2013-01-03 11:53:00
5:53 AM,-9.9,-14.1,82,30.60,10.0,Calm,Calm,-,N/A,,Clear,0,2013-01-03 12:53:00
6:53 AM,-11.9,-17.0,78,30.62,10.0,Calm,Calm,-,N/A,,Clear,0,2013-01-03 13:53:00
7:53 AM,-11.9,-17.0,78,30.61,10.0,Calm,Calm,-,N/A,,Clear,0,2013-01-03 14:53:00
8:53 AM,-9.0,-9.9,96,30.61,9.0,Calm,Calm,-,N/A,,Clear,0,2013-01-03 15:53:00
9:53 AM,-4.0,-5.1,95,30.60,7.0,Calm,Calm,-,N/A,,Clear,0,2013-01-03 16:53:00
10:53 AM,1.9,-2.9,80,30.60,10.0,Calm,Calm,-,N/A,,Clear,0,2013-01-03 17:53:00
11:53 AM,3.9,-0.0,84,30.56,10.0,Calm,Calm,-,N/A,,Clear,0,2013-01-03 18:53:00
12:53 PM,10.0,1.0,67,30.51,10.0,Calm,Calm,-,N/A,,Clear,0,2013-01-03 19:53:00
1:53 PM,12.0,1.0,61,30.50,10.0,SW,3.5,-,N/A,,Clear,220,2013-01-03 20:53:00
2:53 PM,15.1,3.0,59,30.48,10.0,Calm,Calm,-,N/A,,Clear,0,2013-01-03 21:53:00
3:53 PM,14.0,3.0,62,30.48,10.0,North,-9999.0,-,N/A,,Clear,0,2013-01-03 22:53:00
4:53 PM,12.0,1.9,64,30.48,10.0,Calm,Calm,-,N/A,,Clear,0,2013-01-03 23:53:00
5:53 PM,3.0,-2.9,76,30.53,10.0,WNW,3.5,-,N/A,,Clear,300,2013-01-04 00:53:00
6:53 PM,1.9,-4.0,76,30.54,10.0,Calm,Calm,-,N/A,,Clear,0,2013-01-04 01:53:00
7:53 PM,-2.0,-7.1,79,30.55,10.0,West,4.6,-,N/A,,Clear,270,2013-01-04 02:53:00
8:53 PM,-2.9,-8.0,79,30.54,10.0,North,-9999.0,-,N/A,,Clear,0,2013-01-04 03:53:00
9:53 PM,-2.0,-7.1,79,30.52,10.0,Calm,Calm,-,N/A,,Clear,0,2013-01-04 04:53:00
10:53 PM,-4.0,-8.0,83,30.51,10.0,Calm,Calm,-,N/A,,Clear,0,2013-01-04 05:53:00
11:53 PM,-6.0,-9.0,87,30.51,10.0,Calm,Calm,-,N/A,,Clear,0,2013-01-04 06:53:00